Regional Weather Roundup
Issued by NWS

Home | Current Version | Previous Version | Text Only | Print | Product List | Glossary On
Versions: 1 2 3 4 5 6 7 8 9 10 11 12 13 14 15 16 17 18 19 20 21 22 23 24 25 26 27 28 29 30 31 32 33 34 35 36 37 38 39 40 41 42 43 44 45 46 47 48 49 50
000
ASUS44 KOUN 221610
RWROK

WEATHER ROUNDUP FOR OKLAHOMA
NATIONAL WEATHER SERVICE NORMAN OK
1000 AM CST MON DEC 22 2014

NOTE: "FAIR" INDICATES FEW OR NO CLOUDS BELOW 12,000 FEET WITH NO
      SIGNIFICANT WEATHER AND/OR OBSTRUCTIONS TO VISIBILITY.

OKZ001>007-009>012-014-015-017-221700-
NORTHWEST OKLAHOMA AND THE PANHANDLE

CITY           SKY/WX    TMP DP  RH WIND       PRES   REMARKS
GAGE           CLOUDY    49  33  54 N23G32    29.66F
ENID/WOODRING  CLOUDY    48  46  93 W17       29.60R
$$

OKZ016-021>023-033>039-044-045-221700-
SOUTHWEST OKLAHOMA

CITY           SKY/WX    TMP DP  RH WIND       PRES   REMARKS
LAWTON/REGL    CLOUDY    50  43  77 NW7       29.64R
FREDERICK      CLOUDY    49  42  77 NW10G22   29.63R
CLINTON        CLOUDY    47  38  71 N14       29.67R
HOBART         CLOUDY    47  40  76 N17       29.64R
$$

OKZ018>020-024>031-221700-
CENTRAL OKLAHOMA

CITY           SKY/WX    TMP DP  RH WIND       PRES   REMARKS
OKLAHOMA CITY  PTSUNNY   51  44  77 NW9       29.59S
OKC/WILEY POST PTSUNNY   51  44  77 NW12      29.60F
STILLWATER     CLOUDY    50  47  89 W6        29.59R FOG
GUTHRIE        CLOUDY    51  45  79 NW13      29.60R
$$

OKZ008-013-054>072-221700-
NORTHEAST OKLAHOMA

CITY           SKY/WX    TMP DP  RH WIND       PRES   REMARKS
TULSA          CLOUDY    49  48  97 S7        29.60S
TULSA/JONES    CLOUDY    49  47  93 SE5       29.60R
PONCA CITY     CLOUDY    49  47  93 SW5       29.59R FOG
BARTLESVILLE   CLOUDY    47  46  97 S6        29.60S FOG
MUSKOGEE       CLOUDY    49  46  90 S6        29.61S
$$

OKZ032-040>043-046>053-073>077-221700-
SOUTH CENTRAL/SOUTHEAST OKLAHOMA

CITY           SKY/WX    TMP DP  RH WIND       PRES   REMARKS
ARDMORE/DWNTWN MOSUNNY   52  45  76 SW3       29.59R
MCALESTER      CLOUDY    54  48  80 SW9       29.60S
$$



USA.gov is the U.S. government's official web portal to all federal, state and local government web resources and services.